Flag for Hungary Weather past 2 weeks in Debrecen, Hungary

Now
84 °F

Sunny.


Feels Like: 83 °F
Forecast: 66 / 93 °F
Wind: 12 mph from South

Location: Debrecen Airport

Current Time: Aug 28, 2015 at 11:33:04 AM

Latest Report: Aug 28, 2015 at 10:45 AM


Visibility: 10 mi

Pressure: 30.12 "Hg

Humidity: 40%

Dew point: 57 °F

Location of DebrecenLocation

Historic Weather in Debrecen — Graph

°F

Debrecen temperature yesterday

Maximum temperature yesterday: 86 °F (at 2:45 PM)
Minimum temperature yesterday: 61 °F (at 5:45 AM)
Average temperature yesterday: 77 °F

Past Weeks' High & Low Weather Summary

 TemperatureHumidityPressure
High97 °F (Aug 15, 3:45 PM)100% (Aug 24, 4:45 AM)30.21 "Hg (Aug 24, 4:45 AM)
Low55 °F (Aug 24, 4:45 AM)20% (Aug 14, 3:45 PM)29.71 "Hg (Aug 16, 3:45 PM)
Average73 °F65%29.99 "Hg
* Reported Aug 13 10:15 AM — Aug 28 10:15 AM, Debrecen, Weather by CustomWeather, © 2015

Note: Actual official high and low records may vary slightly from our data, if they occured in-between our weather recording intervals... More about our weather records

Advertising

Debrecen weather history for previous 24 hours

 ConditionsComfort  
Time TempWeatherWind HumidityBarometerVisibility
10:15 AM
Fri, Aug 28
82 °FSunny.12 mph42%30.09 "Hg10 mi
9:45 AM79 °FSunny.9 mph51%30.12 "Hg10 mi
9:15 AM77 °FSunny.10 mph57%30.12 "Hg10 mi
8:45 AM75 °FSunny.8 mph57%30.09 "Hg10 mi
8:15 AM72 °FSunny.No wind73%30.09 "Hg10 mi
7:45 AM70 °FSunny.No wind78%30.09 "Hg10 mi
7:15 AM68 °FSunny.No wind83%30.09 "Hg10 mi
6:45 AM64 °FClear.No wind88%30.09 "Hg10 mi
6:15 AM63 °FClear.No wind88%30.09 "Hg10 mi
5:45 AM63 °FClear.No wind88%30.09 "Hg10 mi
4:45 AM64 °FClear.5 mph83%30.07 "Hg10 mi
8:45 PM
Thu, Aug 27
73 °FClear.No wind69%30.07 "Hg10 mi
8:15 PM77 °FSunny.No wind61%30.07 "Hg10 mi
7:45 PM79 °FSunny.No wind58%30.07 "Hg10 mi
7:15 PM82 °FSunny.3 mph48%30.07 "Hg10 mi
6:45 PM82 °FSunny.6 mph48%30.07 "Hg10 mi
6:15 PM84 °FSunny.7 mph45%30.07 "Hg10 mi
5:45 PM86 °FSunny.7 mph40%30.07 "Hg10 mi
5:15 PM86 °FSunny.7 mph40%30.07 "Hg10 mi
4:45 PM86 °FSunny.9 mph38%30.07 "Hg10 mi
4:15 PM86 °FSunny.9 mph40%30.07 "Hg10 mi
3:45 PM86 °FSunny.8 mph43%30.07 "Hg10 mi
3:15 PM86 °FSunny.9 mph40%30.09 "Hg10 mi
2:45 PM86 °FSunny.8 mph40%30.09 "Hg10 mi
2:15 PM84 °FSunny.8 mph40%30.09 "Hg10 mi
1:45 PM84 °FSunny.7 mph43%30.09 "Hg10 mi
1:15 PM84 °FSunny.3 mph43%30.09 "Hg10 mi
12:45 PM82 °FSunny.3 mph48%30.12 "Hg10 mi
12:15 PM82 °FSunny.5 mph48%30.12 "Hg10 mi
11:45 AM81 °FPassing clouds.5 mph51%30.12 "HgN/A
11:15 AM81 °FSunny.2 mph51%30.12 "Hg10 mi
Weather by CustomWeather, © 2015

See weather overviewHow to use our weather pages